Location: Cuiry
(49.3858°N, 3.7708°E)
Time: 14:12:18
(UTC+00:00)

SL-16 R/B - Visible Passes

Search period start: 19 April 2026 00:00
Search period end: 29 April 2026 00:00
Orbit: 839 x 848 km, 71.0° (Epoch: 19 April)

Date Brightness Start Highest point End Pass type
(mag) Time Alt. Az. Time Alt. Az. Time Alt. Az.
19 Apr 5.2 03:16:04 10° N 03:17:58 12° NNE 03:19:51 10° NE visible
19 Apr 3.0 19:55:26 10° SSE 20:00:10 28° ESE 20:04:55 10° NE visible
19 Apr 2.8 21:38:23 10° SW 21:43:56 56° NW 21:49:33 10° NNE visible
19 Apr 4.9 23:25:59 10° WNW 23:29:21 16° NNW 23:32:45 10° N visible
20 Apr 5.3 03:01:40 10° N 03:03:25 11° NNE 03:05:10 10° NE visible
20 Apr 3.1 19:41:02 10° SSE 19:45:42 27° ESE 19:50:23 10° NE visible
20 Apr 2.8 21:23:52 10° SW 21:29:26 58° WNW 21:35:03 10° NNE visible
20 Apr 4.9 23:11:22 10° WNW 23:14:49 16° NNW 23:18:17 10° N visible
21 Apr 5.3 02:47:16 10° N 02:48:52 11° NNE 02:50:29 10° NE visible
21 Apr 3.1 19:26:39 10° SSE 19:31:14 26° ESE 19:35:51 10° NE visible
21 Apr 2.7 21:09:20 10° SW 21:14:56 60° WNW 21:20:34 10° NNE visible
21 Apr 4.9 22:56:45 10° WNW 23:00:17 17° NNW 23:03:50 10° N visible
22 Apr 5.4 02:32:52 10° N 02:34:19 11° NNE 02:35:46 10° NE visible
22 Apr 2.7 20:54:50 10° SW 21:00:26 62° WNW 21:06:05 10° NNE visible
22 Apr 4.9 22:42:08 10° WNW 22:45:44 17° NW 22:49:22 10° N visible
23 Apr 5.5 02:18:29 10° N 02:19:46 11° NNE 02:21:03 10° NE visible
23 Apr 4.4 04:00:49 10° NNW 04:05:52 31° NE 04:10:53 10° ESE visible
23 Apr 2.7 20:40:19 10° SW 20:45:56 64° WNW 20:51:36 10° NNE visible
23 Apr 5.0 22:27:31 10° WNW 22:31:13 17° NW 22:34:54 10° N visible
24 Apr 5.5 02:04:08 10° N 02:05:13 10° NNE 02:06:18 10° NNE visible
24 Apr 4.4 03:46:20 10° NNW 03:51:20 30° NE 03:56:19 10° ESE visible
24 Apr 2.6 20:25:48 10° SW 20:31:26 66° WNW 20:37:07 10° NNE visible
24 Apr 5.0 22:12:54 10° WNW 22:16:40 18° NW 22:20:27 10° N visible
25 Apr 5.6 01:49:49 10° NNE 01:50:40 10° NNE 01:51:31 10° NNE visible
25 Apr 4.5 03:31:51 10° NNW 03:36:49 29° NE 03:41:45 10° ESE visible
25 Apr 2.6 20:11:18 10° SW 20:16:56 68° WNW 20:22:37 10° NNE visible
25 Apr 5.0 21:58:18 10° WNW 22:02:08 18° NW 22:06:00 10° N visible
26 Apr 5.7 01:35:35 10° NNE 01:36:06 10° NNE 01:36:37 10° NNE visible
26 Apr 4.5 03:17:24 10° NNW 03:22:18 29° NE 03:27:12 10° ESE visible
26 Apr 2.6 19:56:47 10° SW 20:02:26 71° WNW 20:08:08 10° NNE visible
26 Apr 5.0 21:43:42 10° W 21:47:36 19° NW 21:51:31 10° N visible
27 Apr 4.5 03:02:55 10° NNW 03:07:47 28° NE 03:12:38 10° ESE visible
27 Apr 2.5 19:42:17 10° SW 19:47:56 73° WNW 19:53:39 10° NNE visible
27 Apr 5.0 21:29:06 10° W 21:33:04 19° NW 21:37:04 10° N visible
28 Apr 4.5 02:48:27 10° NNW 02:53:16 27° NE 02:58:04 10° ESE visible
28 Apr 2.5 19:27:46 10° SW 19:33:27 76° WNW 19:39:10 10° NNE visible
28 Apr 5.0 21:14:30 10° W 21:18:32 19° NW 21:22:36 10° N visible
